Погода в Ике

Перу     14°04′27″S   75°44′18″W
темп.,
°C
ветер,
м/с
пор.,
м/с
влажн.,
%
обл.,
%
осадки,
мм/ч
давл.,
гПа
погр.,
м
26 января, ср
ср2601:00+20зсз227659 0.0 1012206
04:00+19з117892 0.0 1012179
07:00+19з117951 0.0 1014254
10:00+24зюз21556 0.0 1014897
13:00+29зсз534018 0.0 10111686
16:00+28зсз754446 0.0 10111380
19:00+24зсз545843 0.0 1013552
22:00+21сз227078 0.0 1016304
27 января, чт
чт2701:00+20зюз1173100 0.0 1014195
04:00+20ююз117587 0.0 1013182
07:00+20ю117211 0.0 1014239
10:00+25юз215248 0.0 1013877
13:00+30з323828 0.0 10101936
16:00+28з534384 0.0 10101736
19:00+25з335250 0.0 1012591
22:00+21сз216770 0.0 1014254
28 января, пт
пт2801:00+21зсз1170100 0.0 1012205
04:00+19зсз227794 0.0 1012165
07:00+19з118098 0.0 1014203
10:00+24з335812 0.0 1014860
13:00+28зсз534470 0.0 10111657
16:00+26зсз745058 0.0 10111326
19:00+21зсз556968 0.0 1013528
22:00+19зсз2280100 0.0 1016332
29 января, сб
сб2901:00+18з118597 0.0 1014233
04:00+18з118797 0.0 1014185
07:00+18ю1183100 0.0 1015283
10:00+23юз21598 0.0 1015864
13:00+29зсз533917 0.0 10121722
16:00+27зсз7543100 0.0 10111341
19:00+22зсз5460100 0.0 1013515
22:00+19зсз337348 0.0 1016269
30 января, вс
вс3001:00+18зсз117898 0.0 1015170
04:00+17з108451 0.0 1014116
07:00+18ю1178100 0.0 1015206
10:00+23юз215640 0.0 1015823
13:00+29зсз543786 0.0 10121699
16:00+26зсз6443100 0.0 10111283
19:00+23зюз3254100 0.0 1013550
22:00+21з1163100 0.0 1015296